Eugene, OR

9:07 AM PDT on July 23, 2017 (GMT -0700)
Mahlon Sweet

Weather History for KEUG - August, 2013

Change the Weather History Date:

Monday, August 12, 2013

  Actual Average Record
Temperature  
Mean Temperature 67 °F 68 °F  
Max Temperature 77 °F 83 °F 102 °F (1977)
Min Temperature 56 °F 52 °F 41 °F (2007)
Degree Days  
Heating Degree Days 0 1  
Month to date heating degree days 8 12  
Since 1 June heating degree days 106 205  
Since 1 July heating degree days 14 48  
Cooling Degree Days 2 3  
Month to date cooling degree days 47 45  
Year to date cooling degree days 246 162  
Since 1 June cooling degree days 241 157  
Growing Degree Days 17 (Base 50)    
Moisture  
Dew Point 54 °F    
Average Humidity 65    
Maximum Humidity 87    
Minimum Humidity 43    
Precipitation  
Precipitation 0.00 in 0.01 in 0.19 in (1978)
Month to date precipitation T 0.14  
Year to date precipitation 9.67 25.54  
Snow  
Snow 0.00 in - - ()
Month to date snowfall 0.0  
Since 1 June snowfall 0.0  
Since 1 July snowfall 0.0  
Snow Depth 0.00 in    
Sea Level Pressure  
Sea Level Pressure 30.06 in    
Wind  
Wind Speed 3 mph (West)    
Max Wind Speed 9 mph    
Max Gust Speed 14 mph    
Visibility 9 miles    
Events      
T = Trace of Precipitation, MM = Missing Value Source: NWS Daily Summary

Daily Weather History Graph

Daily Weather History Graph

Search for Another Location

Airport or City:

Trip Planner

Search our weather history database for the weather conditions in past years. The results will help you decide how hot, cold, wet, or windy it might be!

Date:

Astronomy

Aug. 12, 2013 Rise Set
Actual Time 6:13 AM PDT 8:21 PM PDT
Civil Twilight 5:41 AM PDT 8:52 PM PDT
Nautical Twilight 5:02 AM PDT 9:31 PM PDT
Astronomical Twilight 4:19 AM PDT 10:14 PM PDT
Moon 12:25 PM PDT (8/12) 11:01 PM PDT (8/12)
Length of Visible Light 15h 11m
Length of Day
14h 07m
Waxing Crescent, 32% of the Moon is Illuminated
Aug 12
Waxing Crescent
Aug 14
First Quarter
Aug 20
Full
Aug 28
Last Quarter
Sep 5
New

Hourly Weather History & Observations

Time (PDT) Temp. Dew Point Humidity Pressure Visibility Wind Dir Wind Speed Gust Speed Precip Events Conditions
12:54 AM 57.0 °F 52.0 °F 83% 30.06 in 10.0 mi Calm Calm - N/A   Scattered Clouds
1:03 AM 55.4 °F 51.8 °F 88% 30.06 in 10.0 mi Calm Calm - N/A   Mostly Cloudy
1:54 AM 59.0 °F 54.0 °F 83% 30.05 in 10.0 mi WSW 3.5 mph - N/A   Overcast
2:54 AM 59.0 °F 53.1 °F 81% 30.05 in 10.0 mi SSW 4.6 mph - N/A   Overcast
3:54 AM 57.9 °F 53.1 °F 84% 30.05 in 10.0 mi SSW 6.9 mph - N/A   Overcast
4:54 AM 57.9 °F 52.0 °F 81% 30.06 in 10.0 mi SSW 5.8 mph - N/A   Overcast
5:54 AM 57.9 °F 52.0 °F 81% 30.05 in 10.0 mi SSW 4.6 mph - N/A   Overcast
6:54 AM 59.0 °F 53.1 °F 81% 30.06 in 7.0 mi West 3.5 mph - N/A   Overcast
7:06 AM 59.0 °F 53.6 °F 82% 30.07 in 7.0 mi West 3.5 mph - N/A   Overcast
7:54 AM 59.0 °F 54.0 °F 83% 30.07 in 6.0 mi West 3.5 mph - N/A   Overcast
8:12 AM 59.0 °F 55.4 °F 88% 30.08 in 6.0 mi Calm Calm - N/A   Overcast
8:54 AM 59.0 °F 55.0 °F 87% 30.09 in 5.0 mi Calm Calm - N/A   Overcast
9:54 AM 61.0 °F 55.0 °F 81% 30.09 in 7.0 mi WNW 3.5 mph - N/A   Overcast
10:54 AM 63.0 °F 55.0 °F 75% 30.09 in 10.0 mi Calm Calm - N/A   Overcast
11:00 AM 62.6 °F 55.4 °F 77% 30.09 in 10.0 mi Calm Calm - N/A   Overcast
11:54 AM 64.9 °F 54.0 °F 68% 30.08 in 10.0 mi Calm Calm - N/A   Overcast
12:54 PM 66.9 °F 55.0 °F 66% 30.07 in 10.0 mi NNW 5.8 mph - N/A   Overcast
1:54 PM 69.1 °F 55.0 °F 61% 30.07 in 10.0 mi WSW 3.5 mph - N/A   Overcast
2:54 PM 72.0 °F 55.0 °F 55% 30.07 in 10.0 mi North 4.6 mph - N/A   Mostly Cloudy
3:07 PM 73.4 °F 55.4 °F 53% 30.07 in 10.0 mi Variable 6.9 mph - N/A   Mostly Cloudy
3:54 PM 73.0 °F 55.0 °F 53% 30.05 in 10.0 mi Variable 4.6 mph - N/A   Scattered Clouds
4:54 PM 75.0 °F 53.1 °F 46% 30.04 in 10.0 mi Calm Calm - N/A   Scattered Clouds
5:54 PM 77.0 °F 54.0 °F 45% 30.02 in 10.0 mi Variable 3.5 mph - N/A   Scattered Clouds
6:54 PM 75.0 °F 55.0 °F 50% 30.02 in 10.0 mi East 3.5 mph - N/A   Scattered Clouds
7:54 PM 73.0 °F 55.0 °F 53% 30.03 in 10.0 mi NE 4.6 mph - N/A   Scattered Clouds
8:54 PM 66.9 °F 54.0 °F 63% 30.06 in 10.0 mi North 9.2 mph - N/A   Scattered Clouds
10:54 PM 61.0 °F 52.0 °F 72% 30.07 in 10.0 mi Calm Calm - N/A   Clear
11:54 PM 59.0 °F 52.0 °F 78% 30.08 in 10.0 mi Calm Calm - N/A   Clear